| time (UTC) | temp F | wind direction | speed MPH | gust MPH | rain 1hr in | rain 24hr in | rain mn in | humidity % | barometer mb |
| 20260903231019 | 78 | 138 | 0.0 | 2.0 | 0.00 | 0.12 | 0.12 | 82 | 1013.4 |
| 20260903230016 | 78 | 149 | 1.0 | 2.0 | 0.00 | 0.12 | 0.12 | 83 | 1013.4 |
| 20260903225033 | 79 | 159 | 1.0 | 4.0 | 0.00 | 0.12 | 0.12 | 82 | 1013.2 |
| 20260903224030 | 79 | 158 | 1.0 | 3.0 | 0.00 | 0.12 | 0.12 | 82 | 1013.3 |
| 20260903223108 | 79 | 144 | 1.0 | 4.0 | 0.00 | 0.12 | 0.12 | 81 | 1013.3 |
| 20260903222024 | 78 | 175 | 1.0 | 2.0 | 0.00 | 0.12 | 0.12 | 83 | 1013.5 |
| 20260903221021 | 78 | 144 | 1.0 | 3.0 | 0.00 | 0.12 | 0.12 | 83 | 1013.2 |
| 20260903220017 | 77 | 132 | 1.0 | 4.0 | 0.00 | 0.12 | 0.12 | 85 | 1013.4 |
| 20260903215034 | 76 | 189 | 0.0 | 2.0 | 0.00 | 0.12 | 0.12 | 88 | 1013.3 |
| 20260903214032 | 76 | 177 | 2.0 | 7.0 | 0.00 | 0.12 | 0.12 | 88 | 1013.2 |
| 20260903213027 | 76 | 189 | 2.0 | 6.0 | 0.00 | 0.12 | 0.12 | 88 | 1013.2 |
| 20260903212024 | 76 | 174 | 2.0 | 6.0 | 0.00 | 0.12 | 0.12 | 88 | 1013.0 |
| 20260903211041 | 76 | 184 | 2.0 | 4.0 | 0.00 | 0.12 | 0.12 | 88 | 1012.8 |
| 20260903210018 | 76 | 154 | 2.0 | 6.0 | 0.00 | 0.12 | 0.12 | 89 | 1012.9 |
| 20260903205036 | 76 | 157 | 2.0 | 4.0 | 0.00 | 0.12 | 0.12 | 89 | 1013.2 |
| 20260903204032 | 76 | 164 | 2.0 | 4.0 | 0.00 | 0.12 | 0.12 | 86 | 1013.2 |
| 20260903203029 | 77 | 173 | 1.0 | 3.0 | 0.00 | 0.12 | 0.12 | 85 | 1013.5 |
| 20260903202025 | 77 | 158 | 2.0 | 4.0 | 0.00 | 0.12 | 0.12 | 84 | 1013.2 |
| 20260903201042 | 77 | 144 | 1.0 | 3.0 | 0.00 | 0.12 | 0.12 | 85 | 1013.1 |
| 20260903200018 | 76 | 104 | 1.0 | 4.0 | 0.00 | 0.12 | 0.12 | 86 | 1013.1 |
| 20260903195035 | 76 | 111 | 2.0 | 4.0 | 0.00 | 0.12 | 0.12 | 85 | 1013.4 |
| 20260903194052 | 77 | 132 | 1.0 | 3.0 | 0.00 | 0.12 | 0.12 | 83 | 1013.7 |
| 20260903193029 | 78 | 107 | 1.0 | 3.0 | 0.00 | 0.12 | 0.12 | 81 | 1014.1 |
| 20260903192026 | 79 | 105 | 1.0 | 4.0 | 0.00 | 0.12 | 0.12 | 79 | 1014.5 |
| 20260903191023 | 80 | 114 | 1.0 | 3.0 | 0.00 | 0.12 | 0.12 | 77 | 1014.5 |
| 20260903190018 | 82 | 8 | 1.0 | 4.0 | 0.00 | 0.12 | 0.12 | 76 | 1014.2 |
| 20260903185035 | 80 | 3 | 1.0 | 4.0 | 0.00 | 0.12 | 0.12 | 77 | 1014.3 |
| 20260903184032 | 79 | 40 | 1.0 | 4.0 | 0.00 | 0.12 | 0.12 | 80 | 1014.3 |
| 20260903183029 | 76 | 72 | 1.0 | 4.0 | 0.00 | 0.12 | 0.12 | 83 | 1014.1 |
| 20260903182046 | 75 | 107 | 2.0 | 7.0 | 0.00 | 0.12 | 0.12 | 80 | 1014.1 |
| 20260903181021 | 78 | 117 | 2.0 | 6.0 | 0.00 | 0.12 | 0.12 | 78 | 1014.3 |
| 20260903180018 | 80 | 121 | 2.0 | 4.0 | 0.00 | 0.12 | 0.12 | 76 | 1014.5 |
| 20260903175035 | 81 | 232 | 1.0 | 3.0 | 0.00 | 0.12 | 0.12 | 78 | 1014.7 |
| 20260903174051 | 81 | 262 | 1.0 | 2.0 | 0.00 | 0.12 | 0.12 | 80 | 1014.4 |
| 20260903173027 | 80 | 350 | 2.0 | 6.0 | 0.00 | 0.12 | 0.12 | 80 | 1013.5 |
| 20260903172024 | 79 | 325 | 1.0 | 3.0 | 0.00 | 0.12 | 0.12 | 82 | 1013.4 |
| 20260903171021 | 79 | 315 | 0.0 | 2.0 | 0.00 | 0.12 | 0.12 | 83 | 1013.2 |
| 20260903170017 | 78 | 285 | 1.0 | 6.0 | 0.00 | 0.12 | 0.12 | 83 | 1013.3 |
| 20260903165035 | 78 | 280 | 2.0 | 11.0 | 0.00 | 0.12 | 0.12 | 82 | 1013.1 |
| 20260903164030 | 78 | 275 | 4.0 | 11.0 | 0.00 | 0.12 | 0.12 | 83 | 1013.5 |
| 20260903163027 | 78 | 277 | 3.0 | 11.0 | 0.00 | 0.12 | 0.12 | 85 | 1013.8 |
| 20260903162024 | 77 | 270 | 3.0 | 10.0 | 0.00 | 0.12 | 0.12 | 86 | 1014.0 |
| 20260903161021 | 77 | 273 | 5.0 | 13.0 | 0.00 | 0.12 | 0.12 | 87 | 1014.0 |
| 20260903160037 | 76 | 280 | 4.0 | 11.0 | 0.00 | 0.12 | 0.12 | 90 | 1013.9 |
| 20260903155036 | 75 | 277 | 5.0 | 11.0 | 0.01 | 0.15 | 0.12 | 92 | 1013.7 |
| 20260903154051 | 74 | 277 | 4.0 | 8.0 | 0.01 | 0.17 | 0.12 | 93 | 1013.5 |
| 20260903153028 | 74 | 268 | 3.0 | 11.0 | 0.01 | 0.17 | 0.12 | 93 | 1013.2 |
| 20260903152024 | 74 | 271 | 3.0 | 9.0 | 0.03 | 0.17 | 0.12 | 93 | 1013.2 |
| 20260903151021 | 74 | 250 | 3.0 | 11.0 | 0.05 | 0.17 | 0.12 | 95 | 1013.2 |
| 20260903150018 | 73 | 233 | 2.0 | 7.0 | 0.06 | 0.17 | 0.12 | 99 | 1013.3 |
| 20260903145035 | 73 | 209 | 3.0 | 6.0 | 0.11 | 0.16 | 0.11 | 99 | 1013.2 |
| 20260903144032 | 73 | 192 | 1.0 | 3.0 | 0.11 | 0.16 | 0.11 | 99 | 1013.2 |
| 20260903143029 | 73 | 180 | 1.0 | 2.0 | 0.11 | 0.16 | 0.11 | 99 | 1013.3 |
| 20260903142025 | 73 | 0.0 | 0.0 | 0.09 | 0.14 | 0.09 | 99 | 1013.8 | |
| 20260903141022 | 73 | 252 | 0.0 | 2.0 | 0.07 | 0.12 | 0.07 | 99 | 1013.8 |
| 20260903140018 | 73 | 173 | 0.0 | 1.0 | 0.06 | 0.11 | 0.06 | 98 | 1013.9 |
| 20260903135035 | 73 | 254 | 0.0 | 1.0 | 0.00 | 0.05 | 0.00 | 98 | 1014.0 |
| 20260903134051 | 73 | 292 | 0.0 | 2.0 | 0.00 | 0.05 | 0.00 | 99 | 1013.8 |
| 20260903133028 | 74 | 0 | 0.0 | 1.0 | 0.00 | 0.05 | 0.00 | 99 | 1013.4 |
| 20260903132025 | 71 | 9 | 0.0 | 2.0 | 0.00 | 0.05 | 0.00 | 99 | 1013.2 |
| 20260903131042 | 69 | 356 | 1.0 | 3.0 | 0.00 | 0.05 | 0.00 | 99 | 1013.1 |
| 20260903130017 | 69 | 349 | 2.0 | 7.0 | 0.00 | 0.05 | 0.00 | 99 | 1012.9 |
| 20260903125034 | 69 | 6 | 1.0 | 3.0 | 0.00 | 0.05 | 0.00 | 99 | 1013.0 |
| 20260903124031 | 68 | 334 | 0.0 | 1.0 | 0.00 | 0.05 | 0.00 | 99 | 1012.9 |
| 20260903123027 | 67 | 340 | 1.0 | 2.0 | 0.00 | 0.05 | 0.00 | 99 | 1013.0 |
| 20260903122024 | 67 | 343 | 1.0 | 3.0 | 0.00 | 0.05 | 0.00 | 99 | 1013.2 |
| 20260903121021 | 67 | 16 | 1.0 | 3.0 | 0.00 | 0.05 | 0.00 | 99 | 1013.2 |
| 20260903120036 | 67 | 1 | 1.0 | 2.0 | 0.00 | 0.05 | 0.00 | 99 | 1013.2 |
| 20260903115052 | 67 | 342 | 1.0 | 2.0 | 0.00 | 0.05 | 0.00 | 99 | 1013.2 |
| 20260903114028 | 67 | 339 | 1.0 | 1.0 | 0.00 | 0.05 | 0.00 | 99 | 1013.0 |
| 20260903113046 | 67 | 347 | 1.0 | 2.0 | 0.00 | 0.05 | 0.00 | 99 | 1013.2 |
| 20260903112021 | 69 | 355 | 1.0 | 2.0 | 0.00 | 0.05 | 0.00 | 99 | 1013.3 |
| 20260903111037 | 69 | 26 | 0.0 | 1.0 | 0.00 | 0.05 | 0.00 | 99 | 1013.2 |
| 20260903110034 | 69 | 0.0 | 0.0 | 0.00 | 0.05 | 0.00 | 99 | 1013.1 | |
| 20260903105030 | 69 | 0.0 | 0.0 | 0.00 | 0.05 | 0.00 | 99 | 1012.9 | |
| 20260903104047 | 69 | 0.0 | 0.0 | 0.00 | 0.05 | 0.00 | 99 | 1012.9 | |
| 20260903103024 | 69 | 0.0 | 0.0 | 0.00 | 0.05 | 0.00 | 99 | 1013.1 | |
| 20260903102020 | 69 | 0.0 | 0.0 | 0.00 | 0.05 | 0.00 | 99 | 1013.2 | |
| 20260903101017 | 69 | 0.0 | 0.0 | 0.00 | 0.05 | 0.00 | 99 | 1013.2 | |
| 20260903100054 | 69 | 0.0 | 0.0 | 0.00 | 0.05 | 0.00 | 99 | 1013.3 | |
| 20260903095032 | 69 | 0.0 | 0.0 | 0.00 | 0.05 | 0.00 | 99 | 1013.3 | |
| 20260903094027 | 69 | 320 | 0.0 | 1.0 | 0.00 | 0.05 | 0.00 | 99 | 1013.2 |
| 20260903093025 | 69 | 0.0 | 0.0 | 0.00 | 0.05 | 0.00 | 99 | 1013.0 | |
| 20260903092021 | 69 | 0.0 | 0.0 | 0.00 | 0.05 | 0.00 | 99 | 1013.0 | |
| 20260903091018 | 69 | 0.0 | 0.0 | 0.00 | 0.05 | 0.00 | 99 | 1013.0 | |
| 20260903090034 | 69 | 0.0 | 0.0 | 0.00 | 0.05 | 0.00 | 99 | 1013.0 | |
| 20260903085031 | 69 | 0.0 | 0.0 | 0.00 | 0.05 | 0.00 | 99 | 1012.9 | |
| 20260903084108 | 69 | 0.0 | 0.0 | 0.00 | 0.05 | 0.00 | 99 | 1013.0 | |
| 20260903083024 | 68 | 0.0 | 0.0 | 0.00 | 0.05 | 0.00 | 99 | 1012.9 | |
| 20260903082021 | 68 | 0.0 | 0.0 | 0.00 | 0.05 | 0.00 | 99 | 1013.1 | |
| 20260903081018 | 68 | 0.0 | 0.0 | 0.00 | 0.05 | 0.00 | 99 | 1013.2 | |
| 20260903080055 | 68 | 0.0 | 0.0 | 0.00 | 0.05 | 0.00 | 99 | 1013.2 | |
| 20260903075031 | 68 | 0.0 | 0.0 | 0.00 | 0.05 | 0.00 | 99 | 1013.3 | |
| 20260903074028 | 68 | 0.0 | 0.0 | 0.00 | 0.05 | 0.00 | 99 | 1013.2 | |
| 20260903073025 | 69 | 0.0 | 0.0 | 0.00 | 0.05 | 0.00 | 99 | 1013.3 | |
| 20260903072041 | 69 | 0.0 | 0.0 | 0.00 | 0.05 | 0.00 | 99 | 1013.4 | |
| 20260903071020 | 69 | 0.0 | 0.0 | 0.00 | 0.05 | 0.00 | 99 | 1013.4 | |
| 20260903070035 | 69 | 0.0 | 0.0 | 0.00 | 0.06 | 0.00 | 99 | 1013.5 | |
| 20260903065032 | 69 | 0.0 | 0.0 | 0.00 | 0.16 | 0.00 | 99 | 1013.5 | |
| 20260903064028 | 69 | 0.0 | 0.0 | 0.00 | 0.19 | 0.00 | 99 | 1013.5 | |
| 20260903063023 | 69 | 0.0 | 0.0 | 0.00 | 0.19 | 0.00 | 99 | 1013.5 | |
| 20260903062019 | 69 | 0.0 | 0.0 | 0.00 | 0.19 | 0.00 | 99 | 1013.7 | |
| 20260903061035 | 69 | 0.0 | 0.0 | 0.00 | 0.19 | 0.00 | 99 | 1013.5 | |
| 20260903060029 | 69 | 0.0 | 0.0 | 0.00 | 0.19 | 0.00 | 99 | 1013.5 | |
| 20260903055026 | 69 | 0.0 | 0.0 | 0.00 | 0.19 | 0.00 | 99 | 1013.5 | |
| 20260903054022 | 69 | 0.0 | 0.0 | 0.00 | 0.19 | 0.00 | 99 | 1013.5 | |
| 20260903053015 | 69 | 0.0 | 0.0 | 0.00 | 0.19 | 0.00 | 99 | 1013.4 | |
| 20260903052033 | 69 | 0.0 | 0.0 | 0.00 | 0.19 | 0.00 | 99 | 1013.5 | |
| 20260903051028 | 69 | 0.0 | 0.0 | 0.00 | 0.19 | 0.00 | 99 | 1013.4 | |
| 20260903050025 | 68 | 0.0 | 0.0 | 0.00 | 0.19 | 0.00 | 99 | 1013.2 | |
| 20260903045042 | 69 | 318 | 0.0 | 1.0 | 0.00 | 0.19 | 0.19 | 99 | 1013.1 |
| 20260903044018 | 69 | 0.0 | 0.0 | 0.00 | 0.19 | 0.19 | 99 | 1013.1 | |
| 20260903043056 | 69 | 318 | 0.0 | 1.0 | 0.00 | 0.19 | 0.19 | 99 | 1013.0 |
| 20260903042032 | 69 | 318 | 0.0 | 1.0 | 0.00 | 0.19 | 0.19 | 99 | 1013.1 |
| 20260903041029 | 69 | 314 | 0.0 | 1.0 | 0.00 | 0.19 | 0.19 | 99 | 1013.1 |
| 20260903040025 | 69 | 331 | 0.0 | 1.0 | 0.00 | 0.19 | 0.19 | 99 | 1013.2 |
| 20260903035022 | 69 | 334 | 0.0 | 1.0 | 0.00 | 0.19 | 0.19 | 99 | 1013.1 |
| 20260903034019 | 69 | 355 | 0.0 | 1.0 | 0.00 | 0.19 | 0.19 | 99 | 1013.2 |
| 20260903033016 | 69 | 0.0 | 0.0 | 0.00 | 0.19 | 0.19 | 99 | 1013.1 | |
| 20260903032034 | 69 | 339 | 0.0 | 1.0 | 0.00 | 0.19 | 0.19 | 99 | 1013.1 |
| 20260903031030 | 69 | 0.0 | 0.0 | 0.00 | 0.19 | 0.19 | 99 | 1013.1 | |
| 20260903030026 | 69 | 2 | 1.0 | 2.0 | 0.00 | 0.19 | 0.19 | 99 | 1013.2 |
| 20260903025023 | 69 | 358 | 1.0 | 3.0 | 0.00 | 0.19 | 0.19 | 98 | 1013.2 |
| 20260903024040 | 70 | 13 | 1.0 | 3.0 | 0.00 | 0.19 | 0.19 | 98 | 1013.2 |
| 20260903023020 | 70 | 358 | 1.0 | 1.0 | 0.00 | 0.19 | 0.19 | 98 | 1013.2 |
| 20260903022015 | 70 | 22 | 0.0 | 1.0 | 0.00 | 0.19 | 0.19 | 97 | 1013.1 |
| 20260903021033 | 70 | 0.0 | 0.0 | 0.00 | 0.19 | 0.19 | 97 | 1013.0 | |
| 20260903020051 | 70 | 0.0 | 0.0 | 0.00 | 0.19 | 0.19 | 97 | 1013.0 | |
| 20260903015026 | 70 | 333 | 0.0 | 1.0 | 0.00 | 0.19 | 0.19 | 97 | 1013.0 |
| 20260903014043 | 70 | 340 | 0.0 | 1.0 | 0.00 | 0.19 | 0.19 | 96 | 1013.0 |
| 20260903013020 | 70 | 344 | 1.0 | 3.0 | 0.00 | 0.19 | 0.19 | 96 | 1012.8 |
| 20260903012016 | 70 | 61 | 0.0 | 1.0 | 0.00 | 0.19 | 0.19 | 95 | 1012.7 |
| 20260903011033 | 71 | 60 | 0.0 | 2.0 | 0.00 | 0.19 | 0.19 | 95 | 1012.7 |
| 20260903010030 | 71 | 78 | 0.0 | 1.0 | 0.00 | 0.19 | 0.19 | 94 | 1012.5 |
| 20260903005028 | 71 | 42 | 0.0 | 2.0 | 0.00 | 0.19 | 0.19 | 93 | 1012.4 |
| 20260903004024 | 72 | 93 | 0.0 | 1.0 | 0.00 | 0.19 | 0.19 | 93 | 1012.3 |
| 20260903003020 | 72 | 47 | 0.0 | 1.0 | 0.00 | 0.19 | 0.19 | 92 | 1012.2 |
| 20260903002036 | 72 | 108 | 0.0 | 2.0 | 0.00 | 0.19 | 0.19 | 92 | 1012.2 |
| 20260903001033 | 73 | 96 | 0.0 | 2.0 | 0.00 | 0.19 | 0.19 | 90 | 1012.2 |
| 20260903000030 | 74 | 117 | 0.0 | 2.0 | 0.00 | 0.19 | 0.19 | 89 | 1012.3 |
| 20260902235028 | 74 | 107 | 0.0 | 3.0 | 0.00 | 0.19 | 0.19 | 87 | 1012.4 |
| 20260902234045 | 75 | 117 | 0.0 | 2.0 | 0.00 | 0.19 | 0.19 | 85 | 1012.5 |
| 20260902233020 | 77 | 175 | 0.0 | 2.0 | 0.00 | 0.19 | 0.19 | 82 | 1012.2 |
| 20260902232017 | 78 | 109 | 1.0 | 4.0 | 0.00 | 0.19 | 0.19 | 80 | 1012.2 |